Location: Central Coast
(33.3208°S, 151.2336°E)
Time: 02:11:29
(UTC+11:00)

Tiangong 1 - Visible Passes

Search period start: 24 October 2017 00:00
Search period end: 03 November 2017 00:00
Orbit: 292 x 319 km, 42.8° (Epoch: 23 October)

Date Brightness Start Highest point End Pass type
(mag) Time Alt. Az. Time Alt. Az. Time Alt. Az.
24 Oct 3.6 04:13:36 13° ENE 04:13:36 13° ENE 04:13:57 10° ENE visible
26 Oct 1.9 20:42:16 10° NW 20:43:52 31° NNW 20:43:52 31° NNW visible
27 Oct 1.5 20:52:08 10° WNW 20:54:35 50° SW 20:54:35 50° SW visible
28 Oct 2.7 21:02:19 10° W 21:04:37 25° SSW 21:04:51 24° S visible
29 Oct 3.5 21:12:41 10° WSW 21:14:28 16° SSW 21:14:44 16° S visible
30 Oct 2.3 19:46:22 10° W 19:48:52 34° SSW 19:51:22 10° SE visible
30 Oct 3.9 21:23:06 10° SW 21:24:17 12° S 21:24:17 12° S visible
31 Oct 3.2 19:56:25 10° WSW 19:58:31 20° SSW 20:00:35 10° SSE visible
31 Oct 4.1 21:33:14 10° SSW 21:33:33 11° SSW 21:33:33 11° SSW visible
01 Nov 3.6 20:06:36 10° SW 20:08:09 14° S 20:09:41 10° SSE visible
02 Nov 3.7 20:16:42 10° SSW 20:17:45 12° S 20:18:47 10° SSE visible
